Location: Newcastle
(43.9170°N, 78.5830°W)
Time: 09:49:03
(UTC-04:00)

Daily predictions for brighter satellites

Satellite Brightness Start Highest point End
(mag) Time Altitude Azimuth Time Altitude Azimuth Time Altitude Azimuth
Cosmos 1420 Rocket 4.5 21:27:39 10° N 21:32:41 48° ENE 21:37:40 10° SE
SL-24 R/B - RUBIN 2 4.4 21:28:39 10° SW 21:33:49 65° NW 21:38:28 10° NNE
NOAA 11 4.5 21:28:25 10° S 21:33:49 73° WSW 21:39:16 10° NNW
Lacrosse 5 3.2 21:30:27 10° SSE 21:33:56 19° ESE 21:37:26 10° ENE
ARGOS 3.4 21:30:20 10° SSE 21:35:37 57° ENE 21:40:57 10° N
ERS-2 2.8 21:32:26 10° S 21:36:02 55° WSW 21:39:40 10° NNW
Spot 2 Rocket 3.7 21:31:17 10° S 21:36:19 75° WSW 21:41:24 10° NNW
H-2A R/B 2.5 21:34:40 10° SE 21:39:42 50° ENE 21:44:54 10° N
Cosmos 1238 Rocket 3.9 21:39:21 10° SE 21:41:17 16° E 21:43:13 10° NE
Cosmos 1844 Rocket 4.1 21:37:54 10° SE 21:41:34 18° E 21:45:15 10° ENE
Cosmos 158 Rocket 4.0 21:45:00 10° S 21:50:18 70° ESE 21:55:30 10° NNE
MetOp-A 4.2 21:47:25 10° SSE 21:52:45 76° ENE 21:58:07 10° N
Cosmos 1825 Rocket 3.9 21:48:49 10° SSE 21:53:07 50° E 21:57:27 10° NNE
Cosmos 2266 Rocket 4.1 21:48:03 10° N 21:54:31 85° E 22:00:52 10° S
Helios 1B rocket 4.0 22:02:36 10° NE 22:05:33 19° E 22:07:34 14° SE
Cosmos 1315 Rocket 3.0 22:02:33 10° S 22:06:28 54° E 22:10:29 10° NNE
Cosmos 1953 4.1 22:02:59 10° NNW 22:06:29 30° W 22:09:59 10° SSW
Cosmos 921 Rocket 4.3 22:05:53 10° N 22:09:46 28° ENE 22:13:00 13° ESE
Meteor 1-16 Rocket 4.3 22:04:37 10° NNW 22:10:07 82° W 22:15:46 10° S
Cosmos 2263 Rocket 2.8 22:05:16 10° SW 22:10:53 61° WNW 22:16:31 10° NNE
NOSS 2-3 (D) 4.0 22:07:34 10° SW 22:12:09 80° NW 22:17:34 10° NE
Cosmos 1707 4.5 22:17:08 10° SW 22:20:40 33° WNW 22:24:13 10° N
ATLAS 3B R/B 3.7 22:15:22 10° NNW 22:21:28 35° NE 22:27:26 10° ESE
NOSS 5 (C) 4.5 22:19:52 10° SW 22:23:43 82° WNW 22:26:52 10° NE
Cosmos 1553 Rocket 4.5 22:20:08 14° SSE 22:24:52 41° E 22:30:29 10° NNE
Cosmos 1437 2.8 22:22:04 10° N 22:25:13 60° ENE 22:27:04 22° SSE
Landsat 7 4.2 22:24:03 17° SE 22:27:28 49° ENE 22:32:05 10° N
CZ-2C R/B 4.2 22:25:53 10° NE 22:29:43 19° E 22:31:49 15° ESE
In-Cosmos 22 4.2 22:26:20 10° S 22:31:50 89° E 22:37:31 10° N
Aureole 1 Rocket 2.6 22:29:18 10° SSW 22:32:22 70° WNW 22:36:03 10° NNE
Cosmos 1340 3.9 22:31:41 10° NNE 22:35:00 28° ENE 22:36:43 20° ESE
OAO 3 Rocket 4.2 22:32:24 10° SW 22:36:28 26° S 22:38:10 21° SE
Cosmos 1300 4.5 22:38:09 10° NNE 22:40:59 19° ENE 22:42:25 16° E
ATLAS 2AS CENTAUR R/B 3.1 22:34:01 10° SSW 22:41:37 59° ESE 22:49:33 10° NE
Cosmos 1674 2.7 22:43:28 22° S 22:45:48 66° E 22:49:36 10° NNE
Cosmos 1842 Rocket 4.3 22:41:49 10° N 22:45:53 38° ENE 22:47:57 23° SE
Terra 2.2 22:43:58 22° SE 22:46:48 50° ENE 22:51:24 10° N
Cosmos-2242 3.2 22:45:25 10° NNW 22:49:47 71° W 22:52:51 19° S
Cosmos 1346 Rocket 3.0 22:47:06 10° NNW 22:51:04 69° W 22:53:33 22° S
Cosmos 724 4.4 22:45:06 10° NNW 22:51:08 74° NE 22:55:09 22° SE
ERS-1 Rocket 3.6 22:46:50 13° S 22:51:08 50° W 22:56:03 10° NNW
SL-14 R/B 4.5 22:52:55 23° ESE 22:53:48 26° E 22:57:03 10° NNE
Cosmos 2278 Rocket 3.4 22:53:37 21° SE 22:55:10 23° ESE 22:59:32 10° NE
COSMOS 2406 3.5 22:50:31 10° NNW 22:56:15 59° ENE 22:59:44 23° SE
Meteor 1-29 3.2 22:54:20 10° NNE 22:57:40 48° E 22:58:37 36° SSE
IGS 5A 3.4 22:57:56 28° SSE 23:00:02 79° ENE 23:04:12 10° N
Iridium 81 4.4 22:59:26 29° SSW 23:00:46 64° W 23:04:03 10° N
OE (NEXTSAT) 4.3 22:57:38 10° WNW 23:01:10 75° SSW 23:02:29 36° ESE
SPOT 5 3.4 23:01:31 19° S 23:04:59 58° W 23:10:09 10° NNW
Spot 1 4.0 23:06:41 31° SSE 23:08:44 85° ENE 23:13:15 10° NNW
Cosmos 2084 3.2 23:05:31 10° NW 23:09:22 72° SW 23:10:42 38° SSE
Cosmos 1844 3.6 23:09:51 14° SSW 23:14:50 78° ESE 23:20:38 10° NNE
Lacrosse 5 1.9 23:11:18 10° SW 23:16:22 80° NW 23:21:28 10° NE
KORONAS-FOTON 4.0 23:15:10 25° SSW 23:17:18 68° W 23:21:13 10° N
Cosmos 1745 Rocket 4.0 23:11:13 10° N 23:17:36 87° E 23:21:21 26° S
Cosmos 1726 2.3 23:14:42 10° NNW 23:18:26 65° W 23:19:51 35° SSW
SPOT 1/Viking Rocket 4.3 23:15:01 19° SSW 23:18:27 46° W 23:23:23 10° NNW
NOSS 3-4 (A) 4.2 23:17:17 27° SE 23:18:52 31° ESE 23:24:17 10° NE
NOSS 3-4 (C) 4.2 23:17:26 27° SE 23:18:58 30° ESE 23:24:22 10° NE
H-2A R/B 4.0 23:15:20 10° SW 23:19:24 23° W 23:23:34 10° NW
Helios 1A 4.1 23:17:19 19° SSW 23:19:44 36° W 23:23:38 10° NNW
Mayak 1.0 23:20:30 10° ENE 23:21:47 11° E 23:21:47 11° E
Cosmos 1844 Rocket 3.0 23:19:11 10° SSW 23:24:49 69° WNW 23:30:30 10° NNE
Meteor 2-10 4.3 23:23:32 10° NNW 23:28:51 69° W 23:31:48 28° S
Cosmos 1110 Rocket 4.5 23:28:09 10° NNW 23:33:10 52° WSW 23:35:35 29° SSW
CENTAUR R/B 4.1 23:26:18 10° NNW 23:33:28 39° NE 23:41:16 10° ESE
Cosmos 2221 2.5 23:34:41 10° N 23:39:03 75° E 23:40:14 46° SSE
Helios 1B rocket 3.7 23:37:09 10° N 23:40:58 38° WNW 23:43:55 15° SW
Cosmos 2082 Rocket 3.5 23:36:10 10° N 23:41:18 32° NE 23:44:35 19° ESE
USA 234 4.3 23:39:08 10° ENE 23:43:53 23° ESE 23:43:53 23° ESE
ADEOS Rocket 4.2 23:39:19 10° NE 23:44:11 26° E 23:45:45 24° ESE
CZ-2C R/B 3.7 23:44:02 28° SSW 23:47:01 59° W 23:52:46 10° NNW
APEX 2.6 23:45:46 10° NNW 23:48:47 85° WSW 23:48:49 84° SW
ATLAS 5 CENTAUR R/B 2.9 23:51:09 25° E 23:51:09 25° E 23:54:27 10° ENE
COBE Rocket 4.0 23:46:00 10° NNE 23:51:00 66° E 23:52:40 41° SSE
SL-27 R/B 4.4 23:48:15 10° N 23:51:03 20° ENE 23:51:49 19° ENE
Cosmos 1709 Rocket 3.9 23:45:13 10° N 23:51:31 80° E 23:54:14 36° SSE
Cosmos 1833 Rocket 3.5 23:47:46 10° NNW 23:53:07 43° ENE 23:55:49 26° ESE
Cosmos 1328 3.7 23:54:35 58° SE 23:55:01 63° E 23:58:56 10° NNE
SAR-Lupe-4 3.4 23:55:12 68° ESE 23:55:28 73° ENE 23:59:03 10° N
